ONEWEB-0278 (48996 NORAD) Tracking and Keplerian Element Data

This shows tracking and keplerian element data for the satellite.

Feedback or suggestion? Click here.




ElementValue
Catalog48996
NameONEWEB-0278
Epoch Orbit1398
Epoch Day269.25001157
Epoch Year2021
RAAN211.8313
Inclination87.8872
Eccentricity0.001122
Argument of Perigee323.2054
Mean Anonmoly83.6561
Mean Motion13.60428723
Decay Rate1.4E-07
L11 48996U 21060AF 21269.25001157 .00000014 00000-0 00000+0 0 9990
L22 48996 87.8872 211.8313 0011220 323.2054 83.6561 13.60428723 13988

Live tracking and technical data element details for ONEWEB-0278 (NORAD 48996). ONEWEB-0278 can be tracked NOW for your location showing map with azimuth and elevation plus other details from your city location.

Track the satellite on the map from your city or location and see movement details for azimuth, elevation, latitude, longitude, range, height, and movement on the map or in text.







IsCatalogInMostPopularTable: catalog: 48996, numindb: 18
Update: records affected: 1



GetName: 48996 ONEWEB-0278

Hit Count: updated at: Sun, 26 Sep 2021 16:30:56 GMT